Wenatchee, WA
on Monday, February 25, 2013

Monday
Previous Day Next Day
Daily Summary
 ActualAverageRecord
Temperature
Mean Temperature °F 33°F  
Max Temperature 41°F 42°F 62°F (1995)
Min Temperature 30°F 25°F -11°F (2011)
Degree Days
Heating Degree Days 29 32  
Month to date heating degree days 832 847  
Since 1 July heating degree days 4775 5104  
Cooling Degree Days 0 0  
Month to date cooling degree days 0 0  
Year to date cooling degree days 0 0  
Moisture
Dew Point 24°F   
Average Humidity 58    
Maximum Humidity 85    
Minimum Humidity 27    
Precipitation
Precipitation 0.12 in 0.05 in 0.67 in (2004)
Month to date precipitation 0.51 1.31  
Year to date precipitation 1.97 3.18  
Snow
Snow 1.20 in 0.10 in in ()
Month to date snowfall 3.4 5.5  
Since 1 July snowfall 47.2 45.9  
Snow Depth T in   
Wind
Wind Speed 7 mph   
Max Wind Speed 22 mph   
Max Gust Speed 30 mph   
Visibility 10 miles   
Events     

Key: T is trace of precipitation, MM is missing value
Source: NWS Daily Summary
Time(PST)TemperatureDew PointHumidity Pressure Visibility Wind DirectionWind SpeedGust SpeedPrecipitationEvents Conditions
12:55 AM 35.1°F 25.0°F 67% 29.99 in 10.0 miles South 6.9 mph - N/A   Clear
1:55 AM 35.1°F 26.1°F 70% 29.95 in 10.0 miles East 6.9 mph - N/A   Overcast
2:55 AM 34.0°F 27.0°F 75% 29.92 in 10.0 miles East 6.9 mph - 0.00 in   Mostly Cloudy
3:55 AM 34.0°F 27.0°F 75% 29.92 in 10.0 miles Calm Calm - N/A   Overcast
4:55 AM 32.0°F 26.1°F 79% 29.91 in 10.0 miles East 4.6 mph - N/A   Partly Cloudy
5:55 AM 30.9°F 27.0°F 85% 29.90 in 10.0 miles East 5.8 mph - N/A   Clear
6:55 AM 30.0°F 26.1°F 85% 29.91 in 10.0 miles North 3.5 mph - N/A   Clear
7:55 AM 30.9°F 27.0°F 85% 29.92 in 10.0 miles Calm Calm - N/A   Clear
8:55 AM 35.1°F 28.0°F 76% 29.92 in 10.0 miles Calm Calm - N/A   Clear
9:55 AM 37.9°F 30.0°F 73% 29.91 in 10.0 miles Calm Calm - N/A   Clear
10:55 AM 46.9°F 26.1°F 44% 29.89 in 10.0 miles West 16.1 mph 21.9 mph N/A   Clear
11:55 AM 48.0°F 27.0°F 44% 29.89 in 10.0 miles West 18.4 mph 25.3 mph N/A   Clear
12:55 PM 48.9°F 21.0°F 33% 29.89 in 10.0 miles West 17.3 mph 29.9 mph N/A   Overcast
1:55 PM 48.9°F 21.0°F 33% 29.91 in 10.0 miles West 18.4 mph 24.2 mph N/A   Overcast
2:08 PM 48.2°F 21.2°F 34% 29.90 in 10.0 miles WSW 21.9 mph 27.6 mph N/A   Overcast
2:55 PM 48.0°F 18.0°F 30% 29.94 in 10.0 miles West 11.5 mph 20.7 mph N/A   Mostly Cloudy
3:55 PM 48.0°F 15.1°F 27% 29.97 in 10.0 miles NW 20.7 mph 27.6 mph N/A   Scattered Clouds
4:55 PM 45.0°F 21.0°F 39% 30.02 in 10.0 miles WNW 13.8 mph 20.7 mph N/A   Overcast
5:55 PM 41.0°F 24.1°F 51% 30.05 in 10.0 miles NW 9.2 mph - N/A   Overcast
6:55 PM 37.0°F 25.0°F 62% 30.09 in 10.0 miles North 4.6 mph - N/A   Partly Cloudy
7:55 PM 36.0°F 25.0°F 64% 30.10 in 10.0 miles NNW 4.6 mph - N/A   Clear
8:55 PM 37.0°F 24.1°F 59% 30.11 in 10.0 miles NW 4.6 mph - N/A   Clear
9:55 PM 37.9°F 21.9°F 53% 30.13 in 10.0 miles South 3.5 mph - N/A   Clear
10:55 PM 34.0°F 21.9°F 61% 30.15 in 10.0 miles NE 3.5 mph - N/A   Clear
11:55 PM 35.1°F 21.0°F 57% 30.17 in 10.0 miles NNW 4.6 mph - N/A   Clear
Moon Phase
Feb. 25 Feb. 25 Mar. 04 Mar. 11 Mar. 19
Sunrise:06:47 AM (PST) Moon Rise:06:03 PM (PST)
Sunset:05:40 PM (PST) Moon Set:06:18 AM (PST)

Copyright © 2014 The Weather Underground, Inc.